Terminal Aerodrome Forecast
Issued by NWS

Home | Current Version | Previous Version | Text Only | Print | Product List | Glossary On
Versions: 1 2 3 4 5 6 7 8 9 10 11 12 13 14 15 16 17 18 19 20 21 22 23 24 25 26 27 28 29 30 31 32
000
FTUS41 KBOX 211122
TAFBED
TAF
KBED 211122Z 2112/2212 VRB03KT 3SM BR BKN025
     FM211400 17005KT P6SM BKN030
     FM211700 17009KT P6SM BKN035
     FM220000 00000KT 6SM BR BKN045
     FM220200 00000KT 5SM BR BKN250
     FM220500 VRB03KT 3SM BR BKN250
     FM220800 25004KT 6SM BR BKN250=

USA.gov is the U.S. government's official web portal to all federal, state and local government web resources and services.